SENTINEL-1A (39634 NORAD) Tracking and Keplerian Element Data

This shows tracking and keplerian element data for the satellite.

Feedback or suggestion? Click here.




ElementValue
Catalog39634
NameSENTINEL-1A
Epoch Orbit22840
Epoch Day198.91596309
Epoch Year2018
RAAN205.9075
Inclination98.1823
Eccentricity0.0001343
Argument of Perigee81.3771
Mean Anonmoly278.7585
Mean Motion14.59196896
Decay Rate-7.5E-07
L11 39634U 14016A 18198.91596309 -.00000075 00000-0 -61363-5 0 9994
L22 39634 98.1823 205.9075 0001343 81.3771 278.7585 14.59196896228400

Live tracking and technical data element details for SENTINEL-1A (NORAD 39634). SENTINEL-1A can be tracked NOW for your location showing map with azimuth and elevation plus other details from your city location.

Track the satellite on the map from your city or location and see movement details for azimuth, elevation, latitude, longitude, range, height, and movement on the map or in text.







IsCatalogInMostPopularTable: catalog: 39634, numindb: 69
Update: records affected: 1



GetName: 39634 SENTINEL-1A

Hit Count: updated at: Sat, 21 Jul 2018 07:38:29 GMT